Location: Az?znagar
(16.8373°N, 80.5091°E)
Time: 15:55:13
(UTC+00:00)

deb Chang Zheng 4 - Pass Details

Date: 01 October 2022
Orbit: 879 x 975 km, 98.9° (Epoch: 30 November)

Event Time Altitude Azimuth Distance (km) Brightness Sun altitude
Exits shadow 14:20:16 44° 175° (S) 1,226 ? -27.9°
Maximum altitude 14:22:13 82° 258° (WSW) 909 ? -28.4°
Drops below altitude 10° 14:27:53 10° 345° (NNW) 2,546 ? -29.7°
Sets 14:30:15 0° 346° (NNW) 3,479 ? -30.3°
